| time (UTC) | temp F | wind direction | speed knots | gust knots | rain 1hr in | rain 24hr in | rain mn in | humidity % | barometer mb |
| 20260508003314 | 53 | 318 | 0.0 | 0.0 | 0.00 | 0.00 | 0.00 | 52 | 1012.1 |
| 20260508002816 | 53 | 296 | 0.0 | 0.0 | 0.00 | 0.00 | 0.00 | 52 | 1012.1 |
| 20260508002339 | 53 | 257 | 0.0 | 0.9 | 0.00 | 0.00 | 0.00 | 52 | 1011.9 |
| 20260508001842 | 53 | 286 | 0.0 | 0.9 | 0.00 | 0.00 | 0.00 | 52 | 1011.9 |
| 20260508001322 | 54 | 302 | 0.0 | 0.0 | 0.00 | 0.00 | 0.00 | 51 | 1011.8 |
| 20260508000825 | 54 | 306 | 0.0 | 0.0 | 0.00 | 0.00 | 0.00 | 51 | 1011.7 |
| 20260508000327 | 54 | 300 | 0.0 | 0.0 | 0.00 | 0.00 | 0.00 | 50 | 1011.6 |
| 20260507235828 | 54 | 297 | 0.0 | 4.3 | 0.00 | 0.00 | 0.00 | 50 | 1011.5 |
| 20260507235329 | 55 | 299 | 0.0 | 9.6 | 0.00 | 0.00 | 0.00 | 50 | 1011.4 |
| 20260507234831 | 55 | 281 | 0.9 | 9.6 | 0.00 | 0.00 | 0.00 | 49 | 1011.2 |
| 20260507234352 | 55 | 252 | 0.0 | 0.9 | 0.00 | 0.00 | 0.00 | 50 | 1011.3 |
| 20260507233832 | 55 | 285 | 0.0 | 2.6 | 0.00 | 0.00 | 0.00 | 50 | 1011.2 |
| 20260507233314 | 56 | 296 | 0.0 | 2.6 | 0.00 | 0.00 | 0.00 | 49 | 1011.1 |
| 20260507232820 | 56 | 275 | 0.0 | 1.7 | 0.00 | 0.00 | 0.00 | 50 | 1011.0 |
| 20260507190813 | 60 | 277 | 0.0 | 15.6 | 0.00 | 0.00 | 0.00 | 46 | 1010.4 |
| 20260507190334 | 60 | 199 | 0.0 | 4.3 | 0.00 | 0.00 | 0.00 | 46 | 1010.4 |
| 20260507185834 | 59 | 265 | 0.0 | 1.7 | 0.00 | 0.00 | 0.00 | 49 | 1010.5 |
| 20260507185336 | 59 | 234 | 0.0 | 0.0 | 0.00 | 0.00 | 0.00 | 53 | 1010.4 |
| 20260507155315 | 57 | 223 | 0.0 | 0.0 | 0.00 | 0.00 | 0.00 | 54 | 1011.8 |
| 20260507154818 | 56 | 265 | 0.0 | 0.0 | 0.00 | 0.00 | 0.00 | 58 | 1012.0 |
| 20260507154323 | 56 | 227 | 0.0 | 0.0 | 0.00 | 0.00 | 0.00 | 57 | 1011.9 |
| 20260507153829 | 56 | 293 | 0.0 | 0.0 | 0.00 | 0.00 | 0.00 | 53 | 1012.0 |
| 20260507153331 | 57 | 284 | 0.0 | 0.0 | 0.00 | 0.00 | 0.00 | 54 | 1012.0 |
| 20260507152851 | 57 | 263 | 0.0 | 0.0 | 0.00 | 0.00 | 0.00 | 60 | 1012.0 |
| 20260507152332 | 56 | 213 | 0.0 | 1.7 | 0.00 | 0.00 | 0.00 | 59 | 1012.0 |
| 20260507151852 | 56 | 159 | 0.0 | 1.7 | 0.00 | 0.00 | 0.00 | 56 | 1012.2 |
| 20260507151314 | 55 | 170 | 0.0 | 0.0 | 0.00 | 0.00 | 0.00 | 56 | 1012.2 |
| 20260507150818 | 55 | 173 | 0.0 | 0.9 | 0.00 | 0.00 | 0.00 | 63 | 1012.3 |
| 20260507150319 | 55 | 260 | 0.0 | 0.0 | 0.00 | 0.00 | 0.00 | 58 | 1012.4 |
| 20260507145823 | 55 | 196 | 0.0 | 0.0 | 0.00 | 0.00 | 0.00 | 64 | 1012.4 |
| 20260507145327 | 55 | 186 | 0.0 | 0.0 | 0.00 | 0.00 | 0.00 | 59 | 1012.3 |
| 20260507144829 | 55 | 246 | 0.0 | 4.3 | 0.00 | 0.00 | 0.00 | 59 | 1012.5 |
| 20260507144314 | 54 | 248 | 0.0 | 4.3 | 0.00 | 0.00 | 0.00 | 60 | 1012.5 |
| 20260507143835 | 54 | 250 | 0.0 | 1.7 | 0.00 | 0.00 | 0.00 | 62 | 1012.6 |
| 20260507143314 | 54 | 265 | 0.0 | 1.7 | 0.00 | 0.00 | 0.00 | 57 | 1012.6 |
| 20260507142815 | 54 | 285 | 0.0 | 0.0 | 0.00 | 0.00 | 0.00 | 62 | 1012.7 |
| 20260507142319 | 54 | 296 | 0.0 | 0.0 | 0.00 | 0.00 | 0.00 | 63 | 1012.8 |
| 20260507141820 | 54 | 212 | 0.0 | 0.0 | 0.00 | 0.00 | 0.00 | 62 | 1012.8 |
| 20260507141321 | 54 | 93 | 0.0 | 0.0 | 0.00 | 0.00 | 0.00 | 65 | 1012.8 |
| 20260507140825 | 53 | 261 | 0.0 | 0.0 | 0.00 | 0.00 | 0.00 | 65 | 1013.0 |
| 20260507140329 | 53 | 288 | 0.0 | 0.0 | 0.00 | 0.01 | 0.00 | 63 | 1013.1 |
| 20260507135814 | 53 | 221 | 0.0 | 0.0 | 0.00 | 0.01 | 0.00 | 64 | 1013.2 |
| 20260507135315 | 53 | 247 | 0.0 | 0.0 | 0.00 | 0.01 | 0.00 | 64 | 1013.2 |
| 20260507134821 | 52 | 264 | 0.0 | 0.9 | 0.00 | 0.01 | 0.00 | 65 | 1013.2 |
| 20260507134333 | 52 | 225 | 0.0 | 0.9 | 0.00 | 0.01 | 0.00 | 62 | 1013.3 |
| 20260507133821 | 52 | 238 | 0.0 | 0.0 | 0.00 | 0.01 | 0.00 | 68 | 1013.3 |
| 20260507133326 | 52 | 282 | 0.0 | 0.0 | 0.00 | 0.01 | 0.00 | 69 | 1013.3 |
| 20260507132830 | 52 | 188 | 0.0 | 0.0 | 0.00 | 0.01 | 0.00 | 68 | 1013.3 |
| 20260507132317 | 51 | 151 | 0.0 | 0.0 | 0.00 | 0.01 | 0.00 | 69 | 1013.4 |
| 20260507131830 | 51 | 174 | 0.0 | 0.0 | 0.00 | 0.01 | 0.00 | 70 | 1013.3 |
| 20260507131319 | 50 | 242 | 0.0 | 0.0 | 0.00 | 0.01 | 0.00 | 73 | 1013.5 |
| 20260507130827 | 50 | 234 | 0.0 | 0.0 | 0.00 | 0.01 | 0.00 | 74 | 1013.4 |
| 20260507130313 | 49 | 223 | 0.0 | 0.0 | 0.00 | 0.03 | 0.00 | 74 | 1013.4 |
| 20260507125825 | 49 | 212 | 0.0 | 0.0 | 0.00 | 0.03 | 0.00 | 74 | 1013.4 |
| 20260507125333 | 49 | 212 | 0.0 | 0.0 | 0.00 | 0.03 | 0.00 | 75 | 1013.3 |
| 20260507124819 | 48 | 221 | 0.0 | 0.0 | 0.00 | 0.03 | 0.00 | 78 | 1013.4 |
| 20260507124331 | 48 | 195 | 0.0 | 0.0 | 0.00 | 0.03 | 0.00 | 80 | 1013.4 |
| 20260507123841 | 47 | 194 | 0.0 | 0.0 | 0.00 | 0.03 | 0.00 | 81 | 1013.5 |